Liberal, KS

12:33 PM CDT on August 19, 2017 (GMT -0500)
Liberal Municipal

Weather History for KLBL - October, 2012

Change the Weather History Date:

Friday, October 5, 2012

  Actual Average Record
Temperature  
Mean Temperature 48 °F -  
Max Temperature 53 °F 78 °F 96 °F (2007)
Min Temperature 42 °F 48 °F 35 °F (1991)
Degree Days  
Heating Degree Days 18    
Moisture  
Dew Point 32 °F    
Average Humidity 54    
Maximum Humidity 66    
Minimum Humidity 41    
Precipitation  
Precipitation 0.00 in - - ()
Sea Level Pressure  
Sea Level Pressure 30.24 in    
Wind  
Wind Speed 10 mph (ENE)    
Max Wind Speed 20 mph    
Max Gust Speed 26 mph    
Visibility 10 miles    
Events      
Averages and records for this station are not official NWS values.
T = Trace of Precipitation, MM = Missing Value Source: NWS Daily Summary

Daily Weather History Graph

Daily Weather History Graph

Search for Another Location

Airport or City:

Trip Planner

Search our weather history database for the weather conditions in past years. The results will help you decide how hot, cold, wet, or windy it might be!

Date:

Astronomy

Oct. 05, 2012 Rise Set
Actual Time 7:43 AM CDT 7:20 PM CDT
Civil Twilight 7:17 AM CDT 7:46 PM CDT
Nautical Twilight 6:47 AM CDT 8:16 PM CDT
Astronomical Twilight 6:16 AM CDT 8:46 PM CDT
Moon 10:52 PM CDT (10/5) 12:45 PM CDT (10/5)
Length of Visible Light 12h 29m
Length of Day
11h 37m
Waning Gibbous, 74% of the Moon is Illuminated
Oct 5
Waning Gibbous
Oct 8
Last Quarter
Oct 15
New
Oct 21
First Quarter
Oct 29
Full

Hourly Weather History & Observations

Time (CDT) Temp. Windchill Dew Point Humidity Pressure Visibility Wind Dir Wind Speed Gust Speed Precip Events Conditions
12:15 AM 51.8 °F - 32.0 °F 47% 30.25 in 10.0 mi NE 6.9 mph - N/A   Clear
12:35 AM 48.2 °F - 32.0 °F 54% 30.26 in 10.0 mi NE 5.8 mph - N/A   Scattered Clouds
12:55 AM 48.2 °F - 33.8 °F 58% 30.25 in 10.0 mi NE 5.8 mph - N/A   Mostly Cloudy
1:15 AM 46.4 °F 43.5 °F 32.0 °F 57% 30.25 in 10.0 mi NNE 5.8 mph - N/A   Partly Cloudy
1:35 AM 46.4 °F 43.5 °F 32.0 °F 57% 30.24 in 10.0 mi NE 5.8 mph - N/A   Clear
1:55 AM 48.2 °F - 33.8 °F 58% 30.23 in 10.0 mi NE 6.9 mph - N/A   Clear
2:15 AM 48.2 °F - 33.8 °F 58% 30.23 in 10.0 mi ENE 8.1 mph - N/A   Clear
2:35 AM 46.4 °F 42.4 °F 33.8 °F 62% 30.23 in 10.0 mi ENE 8.1 mph - N/A   Clear
2:55 AM 46.4 °F 42.9 °F 33.8 °F 62% 30.23 in 10.0 mi ENE 6.9 mph - N/A   Clear
3:15 AM 46.4 °F 42.4 °F 33.8 °F 62% 30.22 in 10.0 mi ENE 8.1 mph - N/A   Clear
3:35 AM 46.4 °F 42.9 °F 33.8 °F 62% 30.22 in 10.0 mi ENE 6.9 mph - N/A   Clear
3:55 AM 46.4 °F 42.9 °F 33.8 °F 62% 30.22 in 10.0 mi ENE 6.9 mph - N/A   Clear
4:15 AM 46.4 °F 42.4 °F 33.8 °F 62% 30.21 in 10.0 mi ENE 8.1 mph - N/A   Clear
4:35 AM 46.4 °F 42.9 °F 33.8 °F 62% 30.22 in 10.0 mi ENE 6.9 mph - N/A   Clear
4:55 AM 46.4 °F 42.9 °F 33.8 °F 62% 30.22 in 10.0 mi NE 6.9 mph - N/A   Clear
5:15 AM 46.4 °F 42.9 °F 33.8 °F 62% 30.22 in 10.0 mi ENE 6.9 mph - N/A   Clear
5:35 AM 46.4 °F 42.4 °F 33.8 °F 62% 30.21 in 10.0 mi NE 8.1 mph - N/A   Clear
5:55 AM 46.4 °F 42.9 °F 33.8 °F 62% 30.22 in 10.0 mi ENE 6.9 mph - N/A   Clear
6:15 AM 44.6 °F 39.2 °F 33.8 °F 66% 30.22 in 10.0 mi NE 10.4 mph - N/A   Clear
6:35 AM 44.6 °F 38.8 °F 33.8 °F 66% 30.21 in 10.0 mi ENE 11.5 mph - N/A   Clear
6:55 AM 44.6 °F 38.8 °F 32.0 °F 61% 30.20 in 10.0 mi East 11.5 mph - N/A   Clear
7:15 AM 44.6 °F 39.2 °F 32.0 °F 61% 30.20 in 10.0 mi East 10.4 mph - N/A   Clear
7:35 AM 44.6 °F 39.2 °F 32.0 °F 61% 30.20 in 10.0 mi East 10.4 mph - N/A   Clear
7:55 AM 44.6 °F 39.7 °F 32.0 °F 61% 30.20 in 10.0 mi East 9.2 mph - N/A   Clear
8:15 AM 44.6 °F 40.7 °F 32.0 °F 61% 30.21 in 10.0 mi East 6.9 mph - N/A   Clear
8:35 AM 44.6 °F 40.2 °F 33.8 °F 66% 30.21 in 10.0 mi East 8.1 mph - N/A   Mostly Cloudy
8:55 AM 44.6 °F 39.7 °F 33.8 °F 66% 30.22 in 10.0 mi ENE 9.2 mph - N/A   Overcast
9:15 AM 44.6 °F 38.8 °F 33.8 °F 66% 30.23 in 10.0 mi ENE 11.5 mph - N/A   Overcast
9:35 AM 46.4 °F 41.9 °F 33.8 °F 62% 30.23 in 10.0 mi East 9.2 mph - N/A   Overcast
9:55 AM 46.4 °F 41.9 °F 33.8 °F 62% 30.24 in 10.0 mi East 9.2 mph - N/A   Overcast
10:15 AM 46.4 °F 41.1 °F 33.8 °F 62% 30.25 in 10.0 mi ENE 11.5 mph - N/A   Overcast
10:35 AM 48.2 °F - 33.8 °F 58% 30.25 in 10.0 mi ENE 10.4 mph - N/A   Overcast
10:55 AM 48.2 °F - 33.8 °F 58% 30.26 in 10.0 mi ENE 11.5 mph - N/A   Overcast
11:35 AM 48.2 °F - 33.8 °F 58% 30.27 in 10.0 mi ENE 10.4 mph - N/A   Overcast
11:55 AM 48.2 °F - 32.0 °F 54% 30.27 in 10.0 mi NE 11.5 mph - N/A   Overcast
12:15 PM 48.2 °F - 33.8 °F 58% 30.26 in 10.0 mi ENE 10.4 mph - N/A   Overcast
12:35 PM 50.0 °F - 33.8 °F 54% 30.25 in 10.0 mi East 10.4 mph - N/A   Overcast
12:55 PM 51.8 °F - 33.8 °F 50% 30.25 in 10.0 mi East 10.4 mph - N/A   Overcast
1:35 PM 51.8 °F - 33.8 °F 50% 30.23 in 10.0 mi East 12.7 mph 17.3 mph N/A   Overcast
1:55 PM 51.8 °F - 33.8 °F 50% 30.22 in 10.0 mi ENE 15.0 mph 18.4 mph N/A   Overcast
2:15 PM 53.6 °F - 32.0 °F 44% 30.21 in 10.0 mi East 13.8 mph - N/A   Overcast
2:35 PM 53.6 °F - 32.0 °F 44% 30.20 in 10.0 mi East 11.5 mph 18.4 mph N/A   Overcast
2:55 PM 53.6 °F - 33.8 °F 47% 30.19 in 10.0 mi ENE 15.0 mph - N/A   Overcast
3:15 PM 53.6 °F - 32.0 °F 44% 30.19 in 10.0 mi ENE 15.0 mph - N/A   Overcast
3:35 PM 53.6 °F - 32.0 °F 44% 30.19 in 10.0 mi ENE 13.8 mph 17.3 mph N/A   Overcast
3:55 PM 53.6 °F - 30.2 °F 41% 30.19 in 10.0 mi ENE 12.7 mph - N/A   Overcast
4:15 PM 53.6 °F - 30.2 °F 41% 30.19 in 10.0 mi ENE 15.0 mph 18.4 mph N/A   Overcast
4:35 PM 53.6 °F - 30.2 °F 41% 30.19 in 10.0 mi ENE 16.1 mph 19.6 mph N/A   Overcast
4:55 PM 53.6 °F - 30.2 °F 41% 30.19 in 10.0 mi ENE 13.8 mph 18.4 mph N/A   Overcast
5:15 PM 53.6 °F - 30.2 °F 41% 30.20 in 10.0 mi ENE 15.0 mph - N/A   Overcast
5:35 PM 51.8 °F - 30.2 °F 44% 30.20 in 10.0 mi NE 16.1 mph - N/A   Overcast
5:55 PM 51.8 °F - 28.4 °F 41% 30.21 in 10.0 mi NE 19.6 mph 24.2 mph N/A   Overcast
6:15 PM 51.8 °F - 28.4 °F 41% 30.21 in 10.0 mi ENE 17.3 mph 23.0 mph N/A   Overcast
6:35 PM 50.0 °F - 28.4 °F 43% 30.22 in 10.0 mi NE 15.0 mph - N/A   Overcast
6:55 PM 50.0 °F - 28.4 °F 43% 30.23 in 10.0 mi NE 18.4 mph - N/A   Overcast
7:15 PM 48.2 °F - 28.4 °F 46% 30.24 in 10.0 mi NE 13.8 mph - N/A   Overcast
7:35 PM 48.2 °F - 26.6 °F 43% 30.25 in 10.0 mi NE 15.0 mph - N/A   Overcast
7:55 PM 48.2 °F - 26.6 °F 43% 30.26 in 10.0 mi NE 18.4 mph - N/A   Overcast
8:15 PM 46.4 °F 39.2 °F 26.6 °F 46% 30.27 in 10.0 mi NE 18.4 mph 26.5 mph N/A   Overcast
8:35 PM 46.4 °F 39.2 °F 26.6 °F 46% 30.28 in 10.0 mi NE 18.4 mph 21.9 mph N/A   Overcast
8:55 PM 44.6 °F 36.9 °F 28.4 °F 53% 30.28 in 10.0 mi NE 18.4 mph 24.2 mph N/A   Overcast
9:15 PM 44.6 °F 36.9 °F 28.4 °F 53% 30.29 in 10.0 mi NE 18.4 mph 23.0 mph N/A   Overcast
9:35 PM 44.6 °F 37.4 °F 28.4 °F 53% 30.29 in 10.0 mi NE 16.1 mph - N/A   Overcast
9:55 PM 44.6 °F 37.2 °F 28.4 °F 53% 30.30 in 10.0 mi NE 17.3 mph 21.9 mph N/A   Overcast
10:35 PM 42.8 °F 35.4 °F 28.4 °F 57% 30.31 in 10.0 mi NE 15.0 mph - N/A   Overcast
10:55 PM 42.8 °F 35.8 °F 28.4 °F 57% 30.31 in 10.0 mi NE 13.8 mph - N/A   Overcast
11:15 PM 42.8 °F 36.6 °F 28.4 °F 57% 30.31 in 10.0 mi ENE 11.5 mph - N/A   Overcast
11:35 PM 42.8 °F 36.2 °F 30.2 °F 61% 30.31 in 10.0 mi ENE 12.7 mph - N/A   Overcast
11:55 PM 42.8 °F 37.5 °F 30.2 °F 61% 30.31 in 10.0 mi NE 9.2 mph - N/A   Overcast